sat.trackr.live / text

‹ back to catalog

STARLINK-3864

NORAD 52468 · 2022-049T

PAYLOAD ACTIVE UNKNOWN

§ Identity

Operator
Country
US
Launch date
2022-05-06
Launch site
AFETR
Launch vehicle
Mass (kg)
RCS (m²)

Purposes: comms

External: N2YO · Heavens-Above · Gunter

§ Orbital elements

Epoch: 2026-09-19T11:34:18.951456Z

Period
93.85 min
Inclination
53.1603°
Eccentricity
0.0001327
Mean motion
15.34390766 rev/d
Perigee alt
461.8 km
Apogee alt
463.6 km
Semi-major
6,840.9 km
B*
1.9723e-5
RAAN
258.8265°
Arg perigee
76.9523°
Mean anomaly
283.1627°
Rev number
24,164

§ Raw data

STARLINK-38641 52468U 22049T   26262.48216379  .00000290  00000+0  19723-4 0  99962 52468  53.1603 258.8265 0001327  76.9523 283.1627 15.34390766241646

JSON: /api/v1/satellites/52468 · /tle

For live sub-satellite position, see the globe view (requires WebGL).

§ Visibility from observer

Set your observer location to see the next 7 days of passes ≥ 10°. The values pass through the URL so the page stays shareable.

No JS? Fill the form by hand. The geolocation button needs JavaScript.